Previsão horária em Juncza

Hoje, 21 Junho, Segunda-feira

Tempo Temperatura Precipitação Vento Pressão Humidade
00:00 +20°C° 0 mm 3 m/s 743 mmHg 86%
01:00 +20°C° 0 mm 2 m/s 743 mmHg 89%
02:00 +20°C° 0 mm 2 m/s 743 mmHg 89%
03:00 +19°C° 0 mm 3 m/s 743 mmHg 90%
04:00 +19°C° 0 mm 3 m/s 743 mmHg 90%
05:00 +21°C° 0 mm 3 m/s 743 mmHg 83%
06:00 +23°C° 0 mm 4 m/s 743 mmHg 76%
07:00 +25°C° 0 mm 5 m/s 743 mmHg 69%
08:00 +26°C° 0 mm 5 m/s 743 mmHg 63%
09:00 +28°C° 0 mm 5 m/s 743 mmHg 57%
10:00 +29°C° 0 mm 6 m/s 743 mmHg 50%
11:00 +29°C° 0 mm 6 m/s 743 mmHg 48%
12:00 +30°C° 0 mm 5 m/s 742 mmHg 46%
13:00 +32°C° 0 mm 5 m/s 742 mmHg 44%
14:00 +32°C° 0 mm 5 m/s 742 mmHg 46%
15:00 +30°C° 0 mm 5 m/s 742 mmHg 47%
16:00 +30°C° 0 mm 5 m/s 741 mmHg 48%
17:00 +29°C° 0 mm 4 m/s 741 mmHg 55%
18:00 +28°C° 0 mm 4 m/s 741 mmHg 61%
19:00 +26°C° 0 mm 3 m/s 741 mmHg 67%
20:00 +25°C° 0 mm 3 m/s 741 mmHg 71%
21:00 +24°C° 0 mm 3 m/s 741 mmHg 76%
22:00 +22°C° 0 mm 3 m/s 741 mmHg 80%
23:00 +21°C° 0 mm 3 m/s 741 mmHg 83%

Amanhã, 22 Junho, Terça-feira

Tempo Temperatura Precipitação Vento Pressão Humidade
00:00 +20°C° 0 mm 2 m/s 741 mmHg 86%
01:00 +20°C° 0 mm 2 m/s 741 mmHg 89%
02:00 +20°C° 0 mm 2 m/s 741 mmHg 90%
03:00 +20°C° 0 mm 2 m/s 741 mmHg 90%
04:00 +20°C° 0 mm 2 m/s 741 mmHg 91%
05:00 +21°C° 0 mm 2 m/s 741 mmHg 87%
06:00 +23°C° 0 mm 2 m/s 742 mmHg 82%
07:00 +24°C° 0 mm 2 m/s 742 mmHg 78%
08:00 +25°C° 0.2 mm 2 m/s 742 mmHg 74%
09:00 +26°C° 0.2 mm 2 m/s 742 mmHg 70%
10:00 +28°C° 0.2 mm 2 m/s 742 mmHg 66%
11:00 +28°C° 0.9 mm 2 m/s 743 mmHg 65%
12:00 +28°C° 0.9 mm 2 m/s 743 mmHg 65%
13:00 +29°C° 0.9 mm 2 m/s 743 mmHg 64%
14:00 +27°C° 0.9 mm 2 m/s 743 mmHg 70%
15:00 +26°C° 0.9 mm 3 m/s 743 mmHg 76%
16:00 +25°C° 0.9 mm 3 m/s 743 mmHg 81%
17:00 +24°C° 1.5 mm 3 m/s 743 mmHg 86%
18:00 +21°C° 1.5 mm 3 m/s 744 mmHg 90%
19:00 +20°C° 1.5 mm 3 m/s 744 mmHg 94%
20:00 +19°C° 1.1 mm 3 m/s 744 mmHg 95%
21:00 +18°C° 1.1 mm 3 m/s 745 mmHg 96%
22:00 +17°C° 1.1 mm 3 m/s 745 mmHg 97%
23:00 +17°C° 0.2 mm 3 m/s 745 mmHg 96%

Depois de amanhã, 23 Junho, Quarta-feira

Tempo Temperatura Precipitação Vento Pressão Humidade
00:00 +16°C° 0.2 mm 3 m/s 745 mmHg 96%
01:00 +16°C° 0.2 mm 2 m/s 745 mmHg 96%
02:00 +16°C° 0.1 mm 2 m/s 745 mmHg 96%
03:00 +15°C° 0.1 mm 2 m/s 745 mmHg 95%
04:00 +15°C° 0.1 mm 2 m/s 745 mmHg 95%
05:00 +16°C° 0.4 mm 2 m/s 746 mmHg 94%
06:00 +16°C° 0.4 mm 2 m/s 746 mmHg 93%
07:00 +17°C° 0.4 mm 2 m/s 746 mmHg 93%
08:00 +17°C° 0.2 mm 2 m/s 747 mmHg 93%
09:00 +17°C° 0.2 mm 2 m/s 747 mmHg 93%
10:00 +17°C° 0.2 mm 2 m/s 747 mmHg 94%
11:00 +19°C° 0 mm 3 m/s 747 mmHg 87%
12:00 +21°C° 0 mm 3 m/s 747 mmHg 81%
13:00 +22°C° 0 mm 3 m/s 747 mmHg 74%
14:00 +24°C° 0 mm 3 m/s 747 mmHg 72%
15:00 +25°C° 0 mm 3 m/s 747 mmHg 70%
16:00 +25°C° 0 mm 3 m/s 747 mmHg 68%
17:00 +24°C° 0 mm 3 m/s 747 mmHg 73%
18:00 +23°C° 0 mm 2 m/s 747 mmHg 78%
19:00 +21°C° 0 mm 2 m/s 747 mmHg 83%
20:00 +20°C° 0 mm 2 m/s 748 mmHg 87%
21:00 +18°C° 0 mm 2 m/s 748 mmHg 92%
22:00 +17°C° 0 mm 2 m/s 748 mmHg 96%
23:00 +16°C° 0 mm 2 m/s 748 mmHg 96%

24 Junho, Quinta-feira

Tempo Temperatura Precipitação Vento Pressão Humidade
00:00 +16°C° 0 mm 2 m/s 748 mmHg 96%
01:00 +15°C° 0 mm 2 m/s 747 mmHg 96%
02:00 +15°C° 0.1 mm 2 m/s 747 mmHg 95%
03:00 +15°C° 0.1 mm 2 m/s 748 mmHg 95%
04:00 +15°C° 0.1 mm 1 m/s 748 mmHg 94%
05:00 +18°C° 0 mm 1 m/s 748 mmHg 87%
06:00 +19°C° 0 mm 2 m/s 748 mmHg 80%
07:00 +20°C° 0 mm 2 m/s 748 mmHg 72%
08:00 +23°C° 0 mm 2 m/s 748 mmHg 68%
09:00 +25°C° 0 mm 2 m/s 748 mmHg 64%
10:00 +26°C° 0 mm 1 m/s 748 mmHg 59%
11:00 +27°C° 0 mm 2 m/s 748 mmHg 58%
12:00 +28°C° 0 mm 2 m/s 747 mmHg 56%
13:00 +28°C° 0 mm 2 m/s 747 mmHg 55%
14:00 +28°C° 0 mm 2 m/s 747 mmHg 56%
15:00 +28°C° 0 mm 2 m/s 747 mmHg 56%
16:00 +28°C° 0 mm 2 m/s 747 mmHg 57%
17:00 +27°C° 0 mm 2 m/s 747 mmHg 64%
18:00 +25°C° 0 mm 2 m/s 747 mmHg 71%
19:00 +24°C° 0 mm 3 m/s 746 mmHg 78%
20:00 +21°C° 0.1 mm 2 m/s 746 mmHg 83%
21:00 +20°C° 0.1 mm 2 m/s 746 mmHg 87%
22:00 +18°C° 0.1 mm 2 m/s 746 mmHg 92%
23:00 +18°C° 0 mm 2 m/s 746 mmHg 93%

25 Junho, Sexta-feira

Tempo Temperatura Precipitação Vento Pressão Humidade
00:00 +17°C° 0 mm 2 m/s 746 mmHg 95%
01:00 +17°C° 0 mm 2 m/s 746 mmHg 96%
02:00 +17°C° 0 mm 2 m/s 745 mmHg 96%
03:00 +17°C° 0 mm 2 m/s 745 mmHg 96%
04:00 +17°C° 0 mm 2 m/s 744 mmHg 97%
05:00 +18°C° 2 mm 2 m/s 744 mmHg 97%
06:00 +18°C° 2 mm 2 m/s 744 mmHg 97%
07:00 +18°C° 2 mm 3 m/s 744 mmHg 97%
08:00 +19°C° 2 mm 2 m/s 744 mmHg 96%
09:00 +20°C° 2 mm 2 m/s 744 mmHg 94%
10:00 +20°C° 2 mm 2 m/s 744 mmHg 93%
11:00 +20°C° 0.6 mm 3 m/s 744 mmHg 92%
12:00 +20°C° 0.6 mm 4 m/s 743 mmHg 92%
13:00 +20°C° 0.6 mm 5 m/s 743 mmHg 91%
14:00 +19°C° 0.2 mm 5 m/s 743 mmHg 90%
15:00 +19°C° 0.2 mm 5 m/s 743 mmHg 89%
16:00 +19°C° 0.2 mm 5 m/s 743 mmHg 89%
17:00 +19°C° 0 mm 4 m/s 743 mmHg 90%
18:00 +18°C° 0 mm 4 m/s 743 mmHg 91%
19:00 +18°C° 0 mm 4 m/s 743 mmHg 93%
20:00 +17°C° 0.1 mm 4 m/s 743 mmHg 94%
21:00 +17°C° 0.1 mm 4 m/s 743 mmHg 96%
22:00 +15°C° 0.1 mm 4 m/s 743 mmHg 97%
23:00 +16°C° 0 mm 3 m/s 743 mmHg 96%

26 Junho, Sábado

Tempo Temperatura Precipitação Vento Pressão Humidade
00:00 +14°C° 0 mm 3 m/s 743 mmHg 95%
01:00 +13°C° 0 mm 3 m/s 743 mmHg 94%
02:00 +13°C° 0 mm 3 m/s 743 mmHg 92%
03:00 +12°C° 0 mm 3 m/s 743 mmHg 90%
04:00 +12°C° 0 mm 3 m/s 743 mmHg 88%
05:00 +14°C° 0 mm 3 m/s 743 mmHg 82%
06:00 +16°C° 0 mm 3 m/s 744 mmHg 75%
07:00 +18°C° 0 mm 4 m/s 744 mmHg 69%
08:00 +19°C° 0 mm 4 m/s 744 mmHg 64%
09:00 +20°C° 0 mm 4 m/s 744 mmHg 58%
10:00 +22°C° 0 mm 4 m/s 744 mmHg 53%
11:00 +22°C° 0 mm 4 m/s 744 mmHg 51%
12:00 +23°C° 0 mm 4 m/s 744 mmHg 50%
13:00 +23°C° 0 mm 4 m/s 744 mmHg 48%
14:00 +23°C° 0 mm 4 m/s 744 mmHg 49%
15:00 +23°C° 0 mm 4 m/s 744 mmHg 50%
16:00 +22°C° 0 mm 4 m/s 744 mmHg 51%
17:00 +21°C° 0 mm 4 m/s 744 mmHg 58%
18:00 +19°C° 0 mm 3 m/s 744 mmHg 66%
19:00 +18°C° 0 mm 3 m/s 744 mmHg 73%
20:00 +17°C° 0 mm 3 m/s 744 mmHg 78%
21:00 +15°C° 0 mm 2 m/s 745 mmHg 84%
22:00 +14°C° 0 mm 2 m/s 745 mmHg 90%
23:00 +14°C° 0 mm 2 m/s 745 mmHg 91%
Mostrar mais

Necessitamos do seu Consentimento

A Meteoprog e os seus Fornecedores de Serviços podem armazenar e aceder a dados pessoais como cookies, identificadores do dispositivo ou outras tecnologias semelhantes existentes no seu dispositivo e processar estes dados para personalizar conteúdos e anúncios, assim como funcionalidades nas redes sociais e análise de tráfego.

  • Armazenar e/ou aceder a informações no seu dispositivo

    Os cookies, identificadores do dispositivo ou outras informações podem ser armazenados ou acedidos no seu dispositivo, para os fins acima indicados.

  • Anúncios e conteúdos personalizados, medição de anúncios e conteúdos, dados sobre o público-alvo e desenvolvimento de produtos

    Os anúncios e os conteúdos podem ser personalizados com base num perfil. Podem ser adicionados dados adicionais para uma maior personalização dos anúncios e dos conteúdos. A eficácia dos anúncios e dos conteúdos pode ser medida. Podem ser obtidas informações sobre o público que visualizou os anúncios e os conteúdos. Estes dados podem ser usados para desenvolver ou melhorar sistemas, softwares ou a experiência do utilizador.

Ao clicar em "Eu concordo”, permitirá o uso de cookies, identificadores do dispositivo e web beacons mencionados ou outras tecnologias semelhantes. As configurações do navegador do seu dispositivo podem ser alteradas.

Para certos fins, podem ser invocados interesses legítimos ao invés de consentimento. Pode ler mais informação sobre este assunto na nossa Política de Privacidade e Cookies.